"Pseudo-MPEC" for C904942

Created 2023 Mar 20 1:22:09 UT using Find_Orb

Click here for an explanation of pseudo-MPECs

 
 Astrometry: 
     C904942  C2023 03 13.28808 11 24 18.24 +09 44 15.0    ~3F1M 21.2 GVNEOCPG96
     C904942*1C2023 03 13.29041411 24 19.289+09 44 08.95   ~3D7q 21.36GVNEOCPG96
     C904942  C2023 03 13.29323 11 24 20.57 +09 44 02.1    ~3F1M 21.2 GVNEOCPG96
     C904942 1C2023 03 13.29556611 24 21.683+09 43 56.42   ~3D7q 20.96GVNEOCPG96
     C904942  C2023 03 13.29839 11 24 23.04 +09 43 49.8    ~3F1M 20.8 GVNEOCPG96
     C904942 1C2023 03 13.30072011 24 24.131+09 43 44.29   ~3D7q 21.33GVNEOCPG96
     C904942 1C2023 03 13.30588411 24 26.521+09 43 31.91   ~3D7q       VNEOCPG96
     C904942 1C2023 03 13.34043611 24 42.592+09 42 09.29   ~3D8b 21.38GVNEOCPG96
     C904942 1C2023 03 13.34108211 24 42.865+09 42 07.67   ~3D8b 21.91GVNEOCPG96
     C904942 1C2023 03 13.34172811 24 43.189+09 42 05.90   ~3D8b 21.04GVNEOCPG96
     C904942 1C2023 03 13.34237311 24 43.488+09 42 04.07   ~3D8b 21.15GVNEOCPG96

Station data:
(G96) Mt. Lemmon Survey  (N32.442751 W110.788720)  US/Arizona.  Observers T.
   A. Pruyne, B. M. Africano, E. J. Christensen, G. A. Farneth, D. C. Fuls,
   A. R. Gibbs, A. D. Grauer, H. Gröller, J. A. Johnson, R. A. Kowalski, S.
   M. Larson, G. J. Leonard, D. Rankin, R. L. Seaman, F. C. Shelly, K. W.
   Wierzchoś. 1.5-m reflector + 10K CCD.

Orbital elements:  C904942
   Perihelion 2023 Mar 7.98003 +/- 32.5 TT = 23:31:14 (JD 2460011.48003)
Epoch 2023 Mar 13.0 TT = JDT 2460016.5   Earth MOID: 0.0365   Ma: 0.0082
M   3.19383892 +/- 18               (J2000 ecliptic)             AutoNEOCP
n   0.63622702 +/- 0.288            Peri.   13.42119 +/- 80
a   1.33883782 +/- 0.404            Node   152.98619 +/- 58
e   0.2312663 +/- 0.209             Incl.    0.59310 +/- 0.9
P   1.55/565.83d           H 28.13  G  0.15   U 11.9  SR
q 1.02920962 +/- 0.108    Q 1.64846602 +/- 2.92
From 11 observations 2023 Mar. 13 (78.2 min); mean residual 0".30
Residuals in arcseconds: 
230313 G96  .33+  .64+    230313 G96  .33+  .18-    230313 G96  .30-  .21+    
230313 G96  .24-  .10+    230313 G96  .44+  .16-    230313 G96  .03+  .01+    
230313 G96  .68-  .10-    230313 G96  .27+  .26-    230313 G96  .00   .26-    
230313 G96  .30-  .25-    230313 G96  .12+  .26+    

Ephemerides (geocentric):
Date (UTC) HH   RA             Dec           delta  r     elong  mag " sig PA
---- --------  ------------   ------------  ------ ------ -----  --- --------
2023 03 20 01  12 23 04.116   +05 05 55.84  .03862 1.0339 171.8 21.8  32d  12
2023 03 20 02  12 23 24.034   +05 04 13.02  .03864 1.0339 171.7 21.8  33d  12
2023 03 20 03  12 23 43.923   +05 02 30.26  .03866 1.0339 171.7 21.8  33d  12
2023 03 20 04  12 24 03.783   +05 00 47.57  .03869 1.0340 171.7 21.8  33d  12
2023 03 20 05  12 24 23.615   +04 59 04.95  .03871 1.0340 171.6 21.8  33d  12
2023 03 20 06  12 24 43.417   +04 57 22.40  .03873 1.0340 171.6 21.8  33d  12
2023 03 20 07  12 25 03.191   +04 55 39.91  .03876 1.0341 171.6 21.8  34d  12
2023 03 20 08  12 25 22.935   +04 53 57.50  .03878 1.0341 171.5 21.8  34d  12
2023 03 20 09  12 25 42.650   +04 52 15.16  .03881 1.0341 171.5 21.8  34d  12
2023 03 20 10  12 26 02.336   +04 50 32.88  .03883 1.0342 171.5 21.8  34d  12
2023 03 20 11  12 26 21.992   +04 48 50.68  .03885 1.0342 171.4 21.8  34d  12
2023 03 20 12  12 26 41.619   +04 47 08.55  .03888 1.0342 171.4 21.8  35d  12
2023 03 20 13  12 27 01.217   +04 45 26.50  .03890 1.0343 171.4 21.8  35d  12
2023 03 20 14  12 27 20.785   +04 43 44.52  .03893 1.0343 171.3 21.8  35d  11
2023 03 20 15  12 27 40.323   +04 42 02.61  .03895 1.0343 171.3 21.8  35d  11
2023 03 20 16  12 27 59.832   +04 40 20.78  .03898 1.0344 171.3 21.8  35d  11
2023 03 20 17  12 28 19.311   +04 38 39.03  .03900 1.0344 171.3 21.8  35d  11
2023 03 20 18  12 28 38.761   +04 36 57.36  .03903 1.0344 171.2 21.8  36d  11
2023 03 20 19  12 28 58.180   +04 35 15.76  .03906 1.0345 171.2 21.8  36d  11
2023 03 20 20  12 29 17.570   +04 33 34.24  .03908 1.0345 171.2 21.8  36d  11
2023 03 20 21  12 29 36.929   +04 31 52.81  .03911 1.0345 171.1 21.8  36d  11
2023 03 20 22  12 29 56.259   +04 30 11.45  .03913 1.0346 171.1 21.8  36d  11
2023 03 20 23  12 30 15.558   +04 28 30.17  .03916 1.0346 171.1 21.8  36d  11
2023 03 21 00  12 30 34.827   +04 26 48.98  .03918 1.0346 171.0 21.8  37d  11
2023 03 21 01  12 30 54.066   +04 25 07.87  .03921 1.0347 171.0 21.8  37d  11
2023 03 21 02  12 31 13.275   +04 23 26.84  .03924 1.0347 171.0 21.8  37d  11
2023 03 21 03  12 31 32.453   +04 21 45.90  .03926 1.0347 170.9 21.8  37d  11
2023 03 21 04  12 31 51.602   +04 20 05.04  .03929 1.0348 170.9 21.8  37d  11
2023 03 21 05  12 32 10.719   +04 18 24.27  .03932 1.0348 170.9 21.8  37d  11
2023 03 21 06  12 32 29.806   +04 16 43.58  .03934 1.0348 170.8 21.8  37d  11
2023 03 21 07  12 32 48.863   +04 15 02.98  .03937 1.0349 170.8 21.8  38d  11
2023 03 21 08  12 33 07.889   +04 13 22.47  .03940 1.0349 170.8 21.8  38d  11
2023 03 21 09  12 33 26.884   +04 11 42.04  .03943 1.0349 170.8 21.8  38d  11
2023 03 21 10  12 33 45.849   +04 10 01.71  .03945 1.0350 170.7 21.8  38d  11
2023 03 21 11  12 34 04.783   +04 08 21.46  .03948 1.0350 170.7 21.8  38d  11
2023 03 21 12  12 34 23.686   +04 06 41.31  .03951 1.0351 170.7 21.8  38d  11
2023 03 21 13  12 34 42.558   +04 05 01.25  .03954 1.0351 170.6 21.9  38d  11
2023 03 21 14  12 35 01.400   +04 03 21.28  .03956 1.0351 170.6 21.9  38d  11
2023 03 21 15  12 35 20.210   +04 01 41.40  .03959 1.0352 170.6 21.9  39d  11
2023 03 21 16  12 35 38.990   +04 00 01.61  .03962 1.0352 170.5 21.9  39d  11
2023 03 21 17  12 35 57.738   +03 58 21.92  .03965 1.0352 170.5 21.9  39d  11
2023 03 21 18  12 36 16.455   +03 56 42.32  .03968 1.0353 170.5 21.9  39d  11
2023 03 21 19  12 36 35.142   +03 55 02.82  .03970 1.0353 170.4 21.9  39d  11
2023 03 21 20  12 36 53.797   +03 53 23.41  .03973 1.0353 170.4 21.9  39d  11
2023 03 21 21  12 37 12.421   +03 51 44.10  .03976 1.0354 170.4 21.9  39d  11
2023 03 21 22  12 37 31.013   +03 50 04.88  .03979 1.0354 170.4 21.9  39d  11
2023 03 21 23  12 37 49.575   +03 48 25.76  .03982 1.0354 170.3 21.9  39d  10
2023 03 22 00  12 38 08.105   +03 46 46.74  .03985 1.0355 170.3 21.9  40d  10